Mora, MN

2:28 AM CDT on March 26, 2017 (GMT -0500)
Mora Municipal

Weather History for KJMR - December, 2012

Change the Weather History Date:

Friday, December 7, 2012

  Actual Average Record
Temperature  
Mean Temperature 22 °F -  
Max Temperature 28 °F 25 °F 51 °F (1939)
Min Temperature 15 °F 3 °F -28 °F (1972)
Degree Days  
Heating Degree Days 44    
Moisture  
Dew Point 19 °F    
Average Humidity 79    
Maximum Humidity 93    
Minimum Humidity 64    
Precipitation  
Precipitation 0.00 in - - ()
Sea Level Pressure  
Sea Level Pressure 30.03 in    
Wind  
Wind Speed 3 mph (NW)    
Max Wind Speed 8 mph    
Max Gust Speed -    
Visibility 10 miles    
Events      
Averages and records for this station are not official NWS values.
T = Trace of Precipitation, MM = Missing Value Source: NWS Daily Summary

Daily Weather History Graph

Daily Weather History Graph

Search for Another Location

Airport or City:

Trip Planner

Search our weather history database for the weather conditions in past years. The results will help you decide how hot, cold, wet, or windy it might be!

Date:

Astronomy

Dec. 07, 2012 Rise Set
Actual Time 7:41 AM CST 4:28 PM CST
Civil Twilight 7:07 AM CST 5:02 PM CST
Nautical Twilight 6:29 AM CST 5:40 PM CST
Astronomical Twilight 5:53 AM CST 6:16 PM CST
Moon 12:43 AM CST (12/7) 12:41 PM CST (12/7)
Length of Visible Light 9h 55m
Length of Day
8h 47m
Last Quarter, 38% of the Moon is Illuminated
Dec 7
Last Quarter
Dec 13
New
Dec 19
First Quarter
Dec 28
Full
Jan 4
Last Quarter

Hourly Weather History & Observations

Time (CST) Temp. Windchill Dew Point Humidity Pressure Visibility Wind Dir Wind Speed Gust Speed Precip Events Conditions
12:01 AM 23.0 °F 17.0 °F 19.4 °F 86% 29.97 in 10.0 mi WNW 4.6 mph - N/A   Clear
12:22 AM 24.8 °F 19.1 °F 19.4 °F 80% 29.98 in 10.0 mi WNW 4.6 mph - N/A   Clear
12:42 AM 23.0 °F 14.7 °F 19.4 °F 86% 29.99 in 10.0 mi WNW 6.9 mph - N/A   Clear
1:01 AM 24.8 °F 16.9 °F 19.4 °F 80% 29.99 in 10.0 mi WNW 6.9 mph - N/A   Clear
1:22 AM 24.8 °F 16.9 °F 19.4 °F 80% 30.00 in 10.0 mi NW 6.9 mph - N/A   Clear
1:42 AM 24.8 °F 17.9 °F 19.4 °F 80% 29.99 in 10.0 mi NNW 5.8 mph - N/A   Clear
2:02 AM 24.8 °F 16.1 °F 19.4 °F 80% 30.00 in 10.0 mi NNW 8.1 mph - N/A   Clear
2:22 AM 26.6 °F 20.0 °F 21.2 °F 80% 30.00 in 10.0 mi NNW 5.8 mph - N/A   Clear
2:41 AM 26.6 °F 22.6 °F 21.2 °F 80% 30.01 in 10.0 mi North 3.5 mph - N/A   Clear
3:02 AM 26.6 °F 21.2 °F 21.2 °F 80% 30.01 in 10.0 mi North 4.6 mph - N/A   Clear
3:21 AM 26.6 °F - 21.2 °F 80% 30.01 in 10.0 mi Calm Calm - N/A   Clear
3:42 AM 26.6 °F - 19.4 °F 74% 30.01 in 10.0 mi Calm Calm - N/A   Clear
4:01 AM 24.8 °F - 19.4 °F 80% 30.01 in 10.0 mi Calm Calm - N/A   Clear
4:21 AM 23.0 °F - 19.4 °F 86% 30.00 in 10.0 mi Calm Calm - N/A   Clear
4:42 AM 21.2 °F - 17.6 °F 86% 30.00 in 10.0 mi Calm Calm - N/A   Clear
5:01 AM 21.2 °F - 17.6 °F 86% 30.01 in 10.0 mi Calm Calm - N/A   Clear
5:22 AM 21.2 °F 16.4 °F 17.6 °F 86% 30.01 in 10.0 mi SW 3.5 mph - N/A   Clear
5:41 AM 21.2 °F 16.4 °F 17.6 °F 86% 30.01 in 10.0 mi SW 3.5 mph - N/A   Clear
6:02 AM 21.2 °F 16.4 °F 17.6 °F 86% 30.01 in 10.0 mi SSW 3.5 mph - N/A   Clear
6:22 AM 19.4 °F 14.3 °F 17.6 °F 93% 30.01 in 10.0 mi SSW 3.5 mph - N/A   Clear
6:42 AM 19.4 °F - 17.6 °F 93% 30.01 in 10.0 mi Calm Calm - N/A   Clear
7:02 AM 19.4 °F - 17.6 °F 93% 30.01 in 10.0 mi Calm Calm - N/A   Clear
7:21 AM 17.6 °F - 14.0 °F 86% 30.02 in 10.0 mi Calm Calm - N/A   Clear
7:41 AM 17.6 °F - 14.0 °F 86% 30.02 in 10.0 mi Calm Calm - N/A   Clear
8:01 AM 15.8 °F - 14.0 °F 93% 30.03 in 7.0 mi Calm Calm - N/A   Clear
8:22 AM 17.6 °F - 14.0 °F 86% 30.03 in 7.0 mi Calm Calm - N/A   Clear
8:42 AM 17.6 °F - 15.8 °F 93% 30.03 in 7.0 mi Calm Calm - N/A   Clear
9:01 AM 21.2 °F - 17.6 °F 86% 30.04 in 7.0 mi Calm Calm - N/A   Clear
9:22 AM 21.2 °F - 19.4 °F 93% 30.04 in 10.0 mi Calm Calm - N/A   Clear
9:42 AM 24.8 °F - 21.2 °F 86% 30.05 in 10.0 mi Calm Calm - N/A   Clear
10:02 AM 24.8 °F 20.5 °F 21.2 °F 86% 30.05 in 10.0 mi West 3.5 mph - N/A   Clear
10:22 AM 26.6 °F 22.6 °F 21.2 °F 80% 30.05 in 10.0 mi WNW 3.5 mph - N/A   Clear
10:41 AM 26.6 °F 21.2 °F 23.0 °F 86% 30.06 in 10.0 mi NW 4.6 mph - N/A   Clear
11:02 AM 26.6 °F 22.6 °F 23.0 °F 86% 30.05 in 10.0 mi NW 3.5 mph - N/A   Clear
11:21 AM 26.6 °F 22.6 °F 21.2 °F 80% 30.05 in 10.0 mi NW 3.5 mph - N/A   Clear
11:42 AM 26.6 °F 22.6 °F 21.2 °F 80% 30.04 in 10.0 mi WNW 3.5 mph - N/A   Scattered Clouds
12:02 PM 26.6 °F 21.2 °F 21.2 °F 80% 30.04 in 10.0 mi NW 4.6 mph - N/A   Scattered Clouds
12:22 PM 26.6 °F 21.2 °F 21.2 °F 80% 30.03 in 10.0 mi NW 4.6 mph - N/A   Scattered Clouds
12:42 PM 26.6 °F 20.0 °F 21.2 °F 80% 30.04 in 10.0 mi West 5.8 mph - N/A   Scattered Clouds
1:02 PM 28.4 °F 23.3 °F 21.2 °F 74% 30.04 in 10.0 mi WNW 4.6 mph - N/A   Scattered Clouds
1:22 PM 28.4 °F 23.3 °F 21.2 °F 74% 30.03 in 10.0 mi West 4.6 mph - N/A   Scattered Clouds
1:42 PM 28.4 °F 24.6 °F 21.2 °F 74% 30.04 in 10.0 mi WNW 3.5 mph - N/A   Mostly Cloudy
2:02 PM 28.4 °F 21.2 °F 19.4 °F 69% 30.04 in 10.0 mi NW 6.9 mph - N/A   Scattered Clouds
2:22 PM 28.4 °F 22.2 °F 19.4 °F 69% 30.04 in 10.0 mi NW 5.8 mph - N/A   Mostly Cloudy
2:42 PM 28.4 °F 23.3 °F 19.4 °F 69% 30.03 in 10.0 mi NNW 4.6 mph - N/A   Overcast
3:02 PM 28.4 °F 23.3 °F 19.4 °F 69% 30.03 in 10.0 mi NNW 4.6 mph - N/A   Mostly Cloudy
3:22 PM 28.4 °F 24.6 °F 17.6 °F 64% 30.04 in 10.0 mi NNW 3.5 mph - N/A   Mostly Cloudy
3:42 PM 28.4 °F 23.3 °F 17.6 °F 64% 30.04 in 10.0 mi NNW 4.6 mph - N/A   Mostly Cloudy
4:02 PM 26.6 °F - 17.6 °F 69% 30.05 in 10.0 mi Calm Calm - N/A   Overcast
4:22 PM 26.6 °F - 19.4 °F 74% 30.05 in 10.0 mi Calm Calm - N/A   Overcast
4:42 PM 26.6 °F 21.2 °F 19.4 °F 74% 30.05 in 10.0 mi NNW 4.6 mph - N/A   Overcast
5:02 PM 26.6 °F 22.6 °F 19.4 °F 74% 30.04 in 10.0 mi North 3.5 mph - N/A   Overcast
5:22 PM 26.6 °F - 17.6 °F 69% 30.05 in 10.0 mi Calm Calm - N/A   Mostly Cloudy
5:42 PM 26.6 °F - 17.6 °F 69% 30.04 in 10.0 mi Calm Calm - N/A   Scattered Clouds
6:02 PM 26.6 °F - 17.6 °F 69% 30.04 in 10.0 mi Calm Calm - N/A   Clear
6:22 PM 26.6 °F - 19.4 °F 74% 30.04 in 10.0 mi Calm Calm - N/A   Clear
6:42 PM 26.6 °F - 19.4 °F 74% 30.05 in 10.0 mi Calm Calm - N/A   Scattered Clouds
7:02 PM 26.6 °F - 19.4 °F 74% 30.05 in 10.0 mi Calm Calm - N/A   Overcast
7:21 PM 26.6 °F - 19.4 °F 74% 30.05 in 10.0 mi Calm Calm - N/A   Overcast
7:42 PM 26.6 °F - 19.4 °F 74% 30.05 in 10.0 mi Calm Calm - N/A   Overcast
8:02 PM 26.6 °F - 19.4 °F 74% 30.05 in 10.0 mi Calm Calm - N/A   Overcast
8:42 PM 26.6 °F - 19.4 °F 74% 30.05 in 10.0 mi Calm Calm - N/A   Overcast
9:01 PM 24.8 °F - 15.8 °F 69% 30.05 in 10.0 mi Calm Calm - N/A   Scattered Clouds
9:42 PM 24.8 °F - 17.6 °F 74% 30.05 in 10.0 mi Calm Calm - N/A   Clear
10:01 PM 24.8 °F - 17.6 °F 74% 30.05 in 10.0 mi Calm Calm - N/A   Clear
10:22 PM 23.0 °F 18.4 °F 15.8 °F 74% 30.05 in 10.0 mi North 3.5 mph - N/A   Clear
10:41 PM 23.0 °F - 15.8 °F 74% 30.05 in 10.0 mi Calm Calm - N/A   Mostly Cloudy
11:02 PM 21.2 °F - 14.0 °F 74% 30.05 in 10.0 mi Calm Calm - N/A   Mostly Cloudy
11:22 PM 21.2 °F - 14.0 °F 74% 30.06 in 10.0 mi Calm Calm - N/A   Mostly Cloudy
11:41 PM 21.2 °F - 14.0 °F 74% 30.06 in 10.0 mi Calm Calm - N/A   Mostly Cloudy